Regional Weather Roundup
Issued by NWS

Home | Current Version | Previous Version | Graphics & Text | Print | Product List | Glossary On
Versions: 1 2 3 4 5 6 7 8 9 10 11 12 13 14 15 16 17 18 19 20 21 22 23 24 25 26 27 28 29 30 31 32 33 34 35 36 37 38 39 40 41 42 43 44 45 46 47 48 49 50
000
ASUS45 KTFX 231819
RWRMT
MONTANA HOURLY WEATHER ROUNDUP
NATIONAL WEATHER SERVICE GREAT FALLS MT
1219 PM MDT WED APR 23 2014

NOTE: "FAIR" INDICATES FEW OR NO CLOUDS BELOW 12000 FEET WITH NO
SIGNIFICANT WEATHER AND/OR OBSTRUCTIONS TO VISIBILITY.

* THESE STATIONS ARE NOT UNDER NWS QUALITY CONTROL. THEY DO NOT
   REPORT WEATHER SUCH AS PRECIPITATION OR FOG.

MTZ001>007-043-231900-
WEST OF THE DIVIDE
CITY           SKY/WX    TMP DP  RH WIND       PRES   REMARKS
KALISPELL      CLOUDY    45  27  49 SW10      29.74S
MISSOULA       CLOUDY    45  27  49 W15G23    29.83F
BUTTE          PTSUNNY   36  19  50 SW10      29.82S WCI  29
MULLAN PASS    LGT SNOW  27  25  92 VRB6      29.76R VSB 1/2  WCI  20
* ESSEX        N/A       39  22  51 S5         N/A   WCI  35
* LINCOLN      N/A       39  22  51 SW8G20     N/A   WCI  33
* LOOKOUT PASS N/A       31  29  92 SE4G9      N/A
* PLAINS APT   PTSUNNY   46  30  54 SW6       29.83F
* POLSON       N/A       43  29  58 SW3G12     N/A
* SEELEY LAKE  N/A       39  24  55 NE2G11     N/A
* THOMP F APT  PTSUNNY   36  18  48 W6G14      N/A   WCI  31
$$

MTZ008-052>055-231900-
SOUTHWEST MONTANA
CITY           SKY/WX    TMP DP  RH WIND       PRES   REMARKS
BOZEMAN        CLOUDY    43  21  42 W21       29.81S
DILLON         PTSUNNY   37  21  52 SW16      29.85S WCI  28
W YELLOWSTONE  N/A       40  26  57 SW5G11     N/A   WCI  36
* BOULDER HILL N/A       36  15  42 S15G22     N/A   WCI  27
* MONIDA PASS  N/A       29  16  58 W6         N/A   WCI  23
* RAYNOLDS PAS N/A       30  19  64 SW9G14     N/A   WCI  22
* WHITEHALL    N/A       44  21  40 SW15G24    N/A
* WISE RIVER   N/A       35  19  52 W13G27     N/A   WCI  26
$$

MTZ009>010-012-014-046-048-049-054-231900-
EAST SLOPES AND CENTRAL MONTANA
CITY           SKY/WX    TMP DP  RH WIND       PRES   REMARKS
CUT BANK       SUNNY     48  18  30 W28G43    29.59R
GREAT FALLS    PTCLDY    48  23  37 W26G38    29.66R
HELENA         PTCLDY    48  21  34 W20G30    29.77F
MALMSTROM AFB  PTCLDY    48  18  30 W31G39    29.64R
* DEARBORN     N/A       45  21  38 SW6G20     N/A
* EAST GLACIER N/A       37  19  48 W29G42     N/A   WCI  25
* MONARCH      N/A       37  15  41 SW22G31    N/A   WCI  26
* PENDROY      N/A       45  19  35 W32G44     N/A
* ROGERS PASS  N/A       34  22  61 SE19G29    N/A   WCI  23
* SAINT MARY   N/A       39  18  43 SW13G27    N/A   WCI  31
* SWEET GRASS  N/A       48  15  27 W34G50     N/A
* WHITE SULPH  N/A       42  19  40 W13G30     N/A
$$

MTZ011-013-016-021-035-040-045-047-050-051-231900-
NORTH CENTRAL MONTANA
CITY           SKY/WX    TMP DP  RH WIND       PRES   REMARKS
HAVRE          PTCLDY    54  25  33 W35G41    29.56F
LEWISTOWN      PTCLDY    46  23  40 W29       29.65S
* CHINOOK      PTCLDY    54  25  33 W28G37    29.53F
* FORT BENTON  PTSUNNY   52  19  27 W25G32    29.64S
* MALTA APT    PTCLDY    54  25  33 W29G40    29.51S
* DENTON       N/A       49  20  32 W35G43     N/A
* GEYSER       N/A       44  18  35 W34G44     N/A
* JUDITH GAP   N/A       44  18  35 W26G32     N/A
* LOMA         N/A       51  21  31 SW22G32    N/A
$$

MTZ017>020-022>027-061-062-231900-
NORTHEAST MONTANA
CITY           SKY/WX    TMP DP  RH WIND       PRES   REMARKS
GLASGOW        CLOUDY    52  34  50 NW28G37   29.50F
GLENDIVE       CLOUDY    43  37  79 W24G29    29.56R
JORDAN         PTSUNNY   52  27  38 W25G33    29.58R
SIDNEY         CLOUDY    48  41  77 W24G31    29.48R
WOLF POINT     CLOUDY    48  37  66 NW20G31   29.51R
* BEAVER HILL  N/A       47  37  68 W32G40     N/A
* LINDSAY DVD  N/A       43  35  73 W28G35     N/A
* NAVAJO       N/A       46  44  93 S6         N/A
* SACO         N/A       51  30  45 W20G31     N/A
* SCOBEY APT   CLOUDY    46  41  83 W18G24    29.47R
$$

MTZ028>042-056>058-231900-
SOUTHCENTRAL AND SOUTHEAST MONTANA
CITY           SKY/WX    TMP DP  RH WIND       PRES   REMARKS
BAKER          CLOUDY    46  36  68 W29G41    29.58R
BILLINGS       CLOUDY    52  21  30 W25G35    29.69F
LIVINGSTON     PTCLDY    45  25  45 W33G41    29.75S
MILES CITY     LGT RAIN  45  37  74 W24G35    29.66R
* EKALAKA APT  CLOUDY    43  37  79 W21G30    29.63R
* HYSHAM       N/A       38  35  89 W15        N/A   WCI  29
* LAME DEER    N/A       32  32 100 W16G27     N/A   WCI  21
* REED POINT   N/A       48  25  41 W27G41     N/A
* ROSCOE HILL  N/A       47  10  22 SW11G18    N/A
$$

REGIONAL REPORTS...DAKOTAS
CITY           SKY/WX    TMP DP  RH WIND       PRES   REMARKS
WILLISTON      CLOUDY    57  37  47 SE13G22   29.44S
DICKINSON      CLOUDY    57  37  47 S14       29.43F
CROSBY         CLOUDY    50  39  66 SE20G31   29.49R
TIOGA          PTSUNNY   54  37  53 SE22G37   29.50F
WATFORD CITY   LGT RAIN  55  39  55 SE13      29.42F
BISMARCK       LGT RAIN  54  43  67 SE22G32   29.56S
GRAND FORKS    LGT RAIN  45  41  86 SE20G28   29.87F
FARGO          RAIN      45  41  86 SE17G28   29.85F
BUFFALO SD     CLOUDY    52  41  66 NW25G36   29.50R
RAPID CITY     CLOUDY    64  45  50 N20       29.53R
$$

REGIONAL REPORTS...WYOMING/IDAHO/WASHINGTON
CITY           SKY/WX    TMP DP  RH WIND       PRES   REMARKS
GILLETTE       CLOUDY    43  34  71 NW18G32   29.67R
SHERIDAN       CLOUDY    45  30  56 NW25G35   29.69S
CODY           PTCLDY    48  16  28 W25G31    29.72R
YELLOWSTONE LA PTCLDY    28  16  61 W13G20    29.82R WCI  17
SALMON         PTSUNNY   46  23  40 S20G25    29.88F
MULLAN PASS    LGT SNOW  27  25  92 VRB6      29.76S VSB 1/2  WCI  20
SAND POINT     N/A       37  37 100 SW6       29.85R WCI  32
SPOKANE        PTSUNNY   46  34  63 SW21      29.83S
$$

REGIONAL REPORTS...ALBERTA
CITY           SKY/WX    TMP DP  RH WIND       PRES   REMARKS
CALGARY        PTSUNNY   52  21  30 W10G20    29.45S
LETHBRIDGE     PTCLDY    50  16  26 W39G52    29.51S
MEDICINE HAT   LGT RAIN  50  37  61 NW20G26   29.48S
EDMONTON       LGT RAIN  37  34  89 W24G31    29.39R WCI  26
WATERTON GATE  N/A       46  16  30 SW20G39    N/A
CARDSTON       N/A       46  18  33 W24G38     N/A
MILK RIVER     N/A       52  12  20 W33G45     N/A
$$

REGIONAL REPORTS...SASKATCHEWAN
CITY           SKY/WX    TMP DP  RH WIND       PRES   REMARKS
SWIFT CURRENT  LGT RAIN  41  37  86 W15       29.43R
MOOSE JAW      RAIN      45  41  86 E18       29.48S VSB 1 1/2
REGINA         LGT RAIN  45  43  93 E22       29.50F
VAL MARIE      N/A       46  30  54 W24        N/A
ASSINIBOIA     N/A       45  43  93 SW6        N/A
CORONACH       N/A       46  43  89 W9         N/A

$$




USA.gov is the U.S. government's official web portal to all federal, state and local government web resources and services.